Location: Caltech
(34.1382°N, 118.1253°W)
Time: 12:41:18
(UTC-08:00)

Cosmos 1484 Rocket - Visible Passes

Search period start: 20 February 2017 00:00
Search period end: 02 March 2017 00:00
Orbit: 508 x 563 km, 97.3° (Epoch: 20 February)

Date Brightness Start Highest point End Pass type
(mag) Time Alt. Az. Time Alt. Az. Time Alt. Az.
20 Feb 4.5 18:20:26 10° SSW 18:24:10 38° W 18:27:53 10° NNW visible
21 Feb 5.2 05:58:46 10° NE 06:02:02 28° E 06:05:15 10° SSE visible
21 Feb 3.9 18:11:29 10° S 18:15:22 50° W 18:19:13 10° NNW visible
22 Feb 5.7 05:50:16 10° NE 05:53:11 21° E 05:56:05 10° SSE visible
22 Feb 3.3 18:02:37 10° S 18:06:34 67° W 18:10:30 10° NNW visible
23 Feb 6.1 05:41:53 10° NE 05:44:20 17° E 05:46:47 10° SE visible
24 Feb 6.4 05:33:45 10° ENE 05:35:29 13° E 05:37:13 10° ESE visible
26 Feb 6.5 19:04:52 10° WSW 19:06:03 11° W 19:07:14 10° WNW visible
27 Feb 6.2 18:55:00 10° SW 18:57:11 14° W 18:59:23 10° WNW visible
28 Feb 6.0 18:45:34 10° SW 18:48:21 18° W 18:51:07 10° NW visible
01 Mar 5.6 18:36:20 10° SSW 18:39:31 23° W 18:42:41 10° NW visible
